VNREDSAT 1

Last updated on Thu Jul 03 2025 00:02:30 GMT+0000 (Coordinated Universal Time)

1 39160U 13021B 25183.58391052 .00000435 00000+0 89851-4 0 9994 2 39160 97.9483 244.4531 0001556 99.5733 260.5646 14.64955098649107
UTC large
Height (km)
Speed (km/s)
/
Latitude / Longitude
Inclination (degrees)
Orbital Period (minutes)
Azimuth
Elevation
Range (km)
Doppler Factor

Next 0 passes for location: London (51.5072 / 0.1276)

Sorry there are no passes over London.